R/V Knorr Calliope CSV data file  (Time stamps are GMT)
Date, Time_GMT, Depth12, Depth35, Air_Temp, WXT5_Ta, WXT5_Pa, dec_lat, dec_lon, EDO_knt, GPS_COG, GPS_SOG, Gyro, IMET_BPR, IMET_SWR, WXT5_Ri, WXT5_Rc, HRH, WXT5_Ua, WXT5_Dm, WXT5_Sm, SBE45C, SBE45S, SBE45T, Salinity, SSCND, Fluorometer, SSTMP, SSV, Wnd_Dir, TWD_5, Wnd_Spd, TWS_5, HdChkSum=52
2008/03/26, 00:00:22, 0.00, 0.00, 8.38, 8.80, 999.5, 45.3430220, -46.8214530, , 53.70, 13.79, 54.80, 1000.67, 0.10, 3.1, 65.80, 92.92, 95.2, 134, 9.7, 30.23970, 33.22150, 3.0427, 33.2215, 30.2397, 143.90, 1.9508, 1455.54, 206.50, 207.2, 14.31, 15.5, 52
2008/03/26, 00:01:22, 3113.00, 0.00, 8.44, 8.90, 999.7, 45.3453080, -46.8173100, , 52.30, 13.70, 57.00, 1000.29, 0.20, 4.6, 65.88, 92.80, 95.3, 134, 10.7, 30.32800, 33.24100, 3.1278, 33.2410, 30.3280, 150.00, 2.0860, 1456.16, 206.00, 204.4, 15.52, 17.3, 52
2008/03/26, 00:02:22, 3112.00, 0.00, 8.38, 8.90, 999.6, 45.3475670, -46.8131320, , 53.00, 12.55, 52.80, 1000.04, 0.10, 5.5, 65.96, 92.89, 95.2, 132, 10.1, 30.38590, 33.24960, 3.1874, 33.2496, 30.3859, 153.60, 2.2057, 1456.69, 202.50, 202.7, 13.46, 16.1, 52
2008/03/26, 00:03:22, 3111.00, 0.00, 8.46, 8.90, 999.7, 45.3499000, -46.8089270, , 61.70, 14.76, 58.20, 1000.57, 0.20, 1.2, 65.98, 92.92, 95.3, 131, 10.5, 30.44680, 33.27320, 3.2361, 33.2732, 30.4468, 158.80, 2.3040, 1457.14, 212.00, 204.7, 14.44, 17.1, 52
2008/03/26, 00:04:22, 3106.00, 0.00, 8.44, 8.90, 999.7, 45.3522670, -46.8048250, , 49.20, 13.05, 54.80, 1000.43, 0.10, 1.7, 66.01, 92.82, 95.1, 133, 10.3, 30.59470, 33.32400, 3.3600, 33.3240, 30.5947, 162.40, 2.4283, 1457.75, 202.60, 200.6, 13.70, 15.7, 52
2008/03/26, 00:05:22, 3103.00, 0.00, 8.35, 8.80, 999.5, 45.3545670, -46.8006670, , 54.20, 12.68, 53.90, 1000.23, 0.10, 7.2, 66.14, 92.80, 95.1, 133, 10.3, 30.74000, 33.36120, 3.4937, 33.3612, 30.7400, 168.80, 2.4887, 1458.06, 204.80, 205.1, 13.56, 15.8, 52
2008/03/26, 00:06:21, 3106.00, 0.00, 8.44, 8.80, 999.8, 45.3568870, -46.7965180, , 47.60, 13.64, 53.20, 1000.41, 0.10, 5.7, 66.23, 92.89, 95.2, 130, 10.4, 30.88960, 33.39660, 3.6338, 33.3966, 30.8896, 171.30, 2.5565, 1458.40, 201.90, 203.2, 14.09, 16.1, 52
2008/03/26, 00:07:22, 3102.00, 0.00, 8.55, 8.90, 999.9, 45.3593020, -46.7922230, , 54.90, 12.91, 56.30, 1000.43, 0.30, 12.0, 66.50, 92.85, 95.3, 129, 10.6, 31.05820, 33.42760, 3.7997, 33.4276, 31.0582, 173.20, 2.6144, 1458.70, 204.90, 205.2, 13.74, 15.8, 52
2008/03/26, 00:08:22, 3096.00, 0.00, 8.44, 9.00, 999.4, 45.3616530, -46.7878620, , 47.30, 14.62, 56.20, 1000.75, 0.00, 11.2, 66.61, 92.94, 95.3, 129, 9.7, 31.18190, 33.45480, 3.9168, 33.4548, 31.1819, 175.00, 2.6345, 1458.82, 203.10, 205.8, 14.94, 15.3, 52
2008/03/26, 00:09:21, 3091.00, 0.00, 8.38, 8.90, 999.5, 45.3639770, -46.7835580, , 59.90, 13.77, 59.00, 1000.09, 0.00, 1.3, 66.64, 92.87, 95.2, 127, 10.6, 31.29650, 33.48130, 4.0237, 33.4813, 31.2965, 176.50, 2.6383, 1458.86, 210.10, 199.6, 14.27, 15.9, 52
2008/03/26, 00:10:22, 3091.00, 0.00, 8.30, 8.90, 999.8, 45.3662820, -46.7792580, , 41.30, 13.10, 52.70, 1000.36, 0.00, 4.6, 66.72, 92.89, 95.2, 129, 10.4, 31.45380, 33.51010, 4.1774, 33.5101, 31.4538, 175.90, 2.6317, 1458.88, 197.00, 203.4, 13.84, 14.3, 52
2008/03/26, 00:11:22, 3087.00, 0.00, 8.46, 8.80, 1000.0, 45.3686280, -46.7751600, , 45.90, 13.49, 54.80, 1000.06, -0.10, 9.7, 66.90, 92.89, 95.2, 130, 10.0, 31.54750, 33.52200, 4.2740, 33.5220, 31.5475, 176.80, 2.6151, 1458.83, 199.30, 205.5, 13.76, 14.8, 52
2008/03/26, 00:12:22, 3081.00, 0.00, 8.30, 8.80, 999.9, 45.3709630, -46.7710250, , 39.60, 14.42, 55.40, 1000.01, 0.00, 9.3, 67.08, 92.82, 95.2, 134, 11.1, 31.60440, 33.53270, 4.3291, 33.5327, 31.6044, 168.60, 2.5888, 1458.73, 200.70, 202.5, 15.31, 16.3, 52
2008/03/26, 00:13:22, 3080.00, 0.00, 8.27, 8.80, 999.5, 45.3733000, -46.7669800, , 51.10, 12.48, 52.20, 1000.21, 0.00, 17.5, 67.36, 92.92, 95.2, 133, 10.3, 31.63730, 33.53280, 4.3669, 33.5328, 31.6373, 164.00, 2.5523, 1458.57, 200.60, 201.8, 13.12, 16.4, 52
2008/03/26, 00:14:22, 3084.00, 0.00, 8.35, 8.70, 999.7, 45.3755630, -46.7629150, , 58.30, 12.26, 52.20, 1000.05, 0.00, 16.6, 67.64, 92.97, 95.2, 132, 10.9, 31.63220, 33.52660, 4.3671, 33.5266, 31.6322, 158.50, 2.5193, 1458.41, 204.30, 202.9, 13.54, 16.3, 52
2008/03/26, 00:15:22, 3079.00, 0.00, 8.35, 8.70, 999.6, 45.3778830, -46.7588400, , 52.70, 12.66, 54.50, 1000.30, 0.00, 9.8, 67.81, 92.97, 95.3, 135, 10.8, 31.59110, 33.50950, 4.3365, 33.5095, 31.5911, 157.60, 2.5015, 1458.32, 203.40, 206.2, 13.80, 16.8, 52
2008/03/26, 00:16:21, 3075.00, 0.00, 8.30, 8.70, 999.7, 45.3801430, -46.7545820, , 44.20, 14.00, 54.70, 1000.57, 0.10, 21.8, 68.17, 92.94, 95.2, 131, 10.8, 31.55590, 33.49470, 4.3104, 33.4947, 31.5559, 158.80, 2.5025, 1458.31, 201.40, 201.1, 15.27, 15.8, 52
2008/03/26, 00:17:21, 3082.00, 0.00, 8.24, 8.70, 999.7, 45.3825200, -46.7502900, , 47.50, 14.70, 54.80, 1000.28, 0.00, 6.9, 68.29, 92.87, 95.2, 132, 11.0, 31.52420, 33.48610, 4.2823, 33.4861, 31.5242, 160.60, 2.5323, 1458.43, 202.20, 205.1, 15.34, 16.5, 52
2008/03/26, 00:18:21, 3064.00, 0.00, 7.91, 8.70, 999.8, 45.3848480, -46.7459500, , 58.10, 13.17, 55.70, 1000.27, -0.10, 5.2, 68.37, 92.92, 95.3, 128, 10.0, 31.46250, 33.47530, 4.2216, 33.4753, 31.4625, 158.20, 2.6099, 1458.75, 207.90, 199.7, 13.84, 15.2, 52
2008/03/26, 00:19:22, 3059.00, 0.00, 8.08, 8.60, 1000.0, 45.3871700, -46.7416250, , 61.70, 15.13, 53.90, 1000.10, -0.10, 1.5, 68.40, 92.89, 95.2, 128, 9.6, 31.40690, 33.46300, 4.1695, 33.4630, 31.4069, 154.50, 2.7362, 1459.28, 209.30, 199.4, 13.60, 15.9, 52
2008/03/26, 00:20:22, 3048.00, 0.00, 8.08, 8.50, 999.6, 45.3895280, -46.7374020, , 53.20, 13.23, 55.50, 1000.20, -0.10, 0.3, 68.40, 92.89, 95.3, 131, 9.7, 31.34460, 33.44960, 4.1104, 33.4496, 31.3446, 153.30, 2.9252, 1460.07, 205.70, 205.3, 13.46, 15.2, 52
2008/03/26, 00:21:22, 3047.00, 0.00, 8.19, 8.60, 999.8, 45.3918680, -46.7331550, , 47.50, 13.18, 54.80, 1000.64, -0.10, 0.0, 68.40, 92.89, 95.3, 132, 8.4, 31.29720, 33.43940, 4.0655, 33.4394, 31.2972, 151.50, 3.2686, 1461.53, 202.40, 203.6, 13.80, 14.6, 52
2008/03/26, 00:22:22, 3060.00, 0.00, 8.02, 8.50, 999.7, 45.3941720, -46.7288470, , 52.00, 12.52, 56.20, 1000.71, -0.10, 0.0, 68.40, 92.97, 95.3, 125, 8.9, 31.28620, 33.44480, 4.0475, 33.4448, 31.2862, 152.40, 3.9680, 1464.49, 204.60, 201.3, 12.74, 14.3, 52
2008/03/26, 00:23:22, 3089.00, 0.00, 8.13, 8.60, 999.8, 45.3964600, -46.7245900, , 57.20, 14.05, 54.80, 1000.27, 0.20, 0.0, 68.40, 92.97, 95.4, 131, 8.9, 31.31150, 33.46020, 4.0616, 33.4602, 31.3115, 151.20, 4.7646, 1467.79, 208.20, 208.7, 12.29, 15.0, 52
2008/03/26, 00:24:22, 3084.00, 0.00, 8.24, 8.70, 999.8, 45.3987730, -46.7203700, , 58.30, 13.68, 56.40, 1000.60, 0.40, 0.0, 68.40, 92.97, 95.4, 128, 9.2, 31.40060, 33.48460, 4.1409, 33.4846, 31.4006, 149.00, 5.7784, 1471.94, 209.50, 200.5, 12.99, 14.7, 52
2008/03/26, 00:25:22, 3087.00, 0.00, 8.41, 8.80, 999.6, 45.4010580, -46.7161020, , 54.40, 12.63, 53.60, 1000.17, 0.40, 0.0, 68.40, 93.01, 95.5, 130, 9.5, 31.51520, 33.51690, 4.2417, 33.5169, 31.5152, 151.20, 6.4818, 1474.76, 204.90, 202.6, 12.41, 15.1, 52
2008/03/26, 00:26:22, 3087.00, 0.00, 8.55, 9.00, 999.9, 45.4033670, -46.7119020, , 49.60, 13.16, 55.00, 1000.61, 0.40, 0.0, 68.40, 92.99, 95.5, 133, 10.7, 31.67530, 33.55810, 4.3859, 33.5581, 31.6753, 153.30, 6.8688, 1476.32, 204.60, 205.9, 13.61, 16.9, 52
2008/03/26, 00:27:22, 3079.00, 0.00, 8.74, 9.10, 999.7, 45.4055430, -46.7076800, , 51.20, 12.94, 56.90, 1000.51, 0.20, 0.0, 68.40, 93.11, 95.5, 136, 10.0, 32.12010, 33.69260, 4.7641, 33.6926, 32.1201, 149.60, 7.4716, 1478.80, 206.40, 206.1, 13.64, 15.0, 52
2008/03/26, 00:28:21, 3066.00, 0.00, 8.91, 9.30, 999.4, 45.4077700, -46.7033980, , 58.50, 13.98, 54.80, 1000.10, 0.50, 0.0, 68.40, 93.11, 95.6, 137, 10.7, 32.61980, 33.82610, 5.2018, 33.8261, 32.6198, 148.80, 7.7047, 1479.81, 207.60, 207.3, 14.03, 17.1, 52
2008/03/26, 00:29:22, 3066.00, 0.00, 9.05, 9.50, 999.6, 45.4100320, -46.6990570, , 51.80, 13.80, 56.20, 1000.06, 0.50, 0.0, 68.40, 93.32, 95.6, 128, 10.9, 33.95890, 34.27560, 6.2606, 34.2756, 33.9589, 136.80, 8.0731, 1481.71, 207.30, 202.1, 14.77, 16.0, 52
2008/03/26, 00:30:22, 3072.00, 0.00, 9.13, 9.60, 999.8, 45.4123130, -46.6946580, , 56.90, 13.61, 55.50, 1000.31, 0.50, 0.0, 68.40, 93.32, 95.6, 137, 11.2, 35.87890, 34.69660, 7.9453, 34.6966, 35.8789, 127.60, 8.2803, 1483.10, 207.00, 206.7, 14.15, 17.5, 52
2008/03/26, 00:31:21, 3071.00, 0.00, 9.30, 9.80, 999.6, 45.4145920, -46.6902420, , 59.70, 15.23, 55.90, 1000.29, 0.50, 0.1, 68.40, 93.37, 95.6, 138, 12.3, 36.82210, 34.75540, 8.9020, 34.7554, 36.8221, 124.00, 8.3946, 1483.63, 210.80, 205.1, 14.54, 19.3, 52
2008/03/26, 00:32:21, 3085.00, 0.00, 9.36, 9.90, 999.5, 45.4168180, -46.6858630, , 49.10, 13.71, 54.80, 1000.12, 0.70, 0.1, 68.41, 93.39, 95.6, 138, 12.6, 37.41820, 34.75480, 9.5401, 34.7548, 37.4182, 125.60, 8.5398, 1484.19, 202.20, 206.1, 14.83, 18.7, 52
2008/03/26, 00:33:22, 3091.00, 0.00, 9.52, 10.00, 999.6, 45.4190380, -46.6815730, , 45.40, 12.94, 53.70, 999.81, 0.50, 0.1, 68.41, 93.46, 95.6, 142, 12.0, 37.79320, 34.75320, 9.9410, 34.7532, 37.7932, 128.30, 8.6946, 1484.75, 200.40, 210.8, 14.77, 17.2, 52
2008/03/26, 00:34:22, 3090.00, 0.00, 9.66, 10.10, 999.4, 45.4212650, -46.6773550, , 56.10, 13.69, 54.20, 1000.49, 0.70, 0.2, 68.41, 93.53, 95.6, 137, 11.8, 38.03170, 34.76320, 10.1838, 34.7632, 38.0317, 130.40, 8.7881, 1485.11, 209.00, 205.8, 14.53, 18.0, 52
2008/03/26, 00:35:22, 0.00, 0.00, 9.86, 10.20, 999.5, 45.4234950, -46.6730950, , 58.40, 13.34, 54.50, 999.84, 0.70, 0.5, 68.42, 93.56, 95.6, 144, 13.5, 38.15820, 34.76250, 10.3187, 34.7625, 38.1582, 132.30, 8.8645, 1485.40, 207.10, 213.7, 14.68, 20.1, 52
2008/03/26, 00:36:22, 3082.00, 0.00, 10.00, 10.30, 999.2, 45.4256100, -46.6689580, , 58.50, 12.34, 57.70, 1000.33, 0.70, 0.7, 68.44, 93.58, 95.5, 139, 12.3, 38.24900, 34.76910, 10.4080, 34.7691, 38.2490, 134.10, 8.9048, 1485.55, 209.90, 205.4, 15.02, 18.0, 52
2008/03/26, 00:37:22, 3075.00, 0.00, 10.22, 10.40, 999.4, 45.4277030, -46.6646950, , 54.60, 13.92, 54.60, 999.80, 0.80, 0.6, 68.45, 93.65, 95.5, 144, 14.4, 38.30140, 34.76460, 10.4683, 34.7646, 38.3014, 133.80, 8.9585, 1485.75, 208.10, 207.5, 15.78, 19.5, 52
2008/03/26, 00:38:22, 3063.00, 0.00, 10.28, 10.50, 999.5, 45.4298500, -46.6606030, , 50.30, 12.77, 59.20, 999.55, 0.60, 0.5, 68.46, 93.58, 95.5, 136, 13.1, 38.36590, 34.77060, 10.5301, 34.7706, 38.3659, 132.30, 9.0046, 1485.93, 209.20, 201.0, 16.25, 17.9, 52
2008/03/26, 00:39:22, 3063.00, 0.00, 10.39, 10.70, 999.3, 45.4319250, -46.6564950, , 54.50, 13.84, 56.40, 1000.03, 0.70, 0.9, 68.47, 93.63, 95.5, 147, 14.8, 38.41570, 34.77650, 10.5766, 34.7765, 38.4157, 133.80, 9.0317, 1486.03, 207.50, 207.7, 16.14, 20.8, 52
2008/03/26, 00:40:21, 3074.00, 0.00, 10.39, 10.70, 999.5, 45.4339970, -46.6522680, , 65.30, 13.79, 55.30, 1000.41, 0.60, 0.4, 68.48, 93.63, 95.5, 129, 12.2, 38.44770, 34.77730, 10.6096, 34.7773, 38.4477, 133.50, 9.0449, 1486.08, 214.20, 198.5, 15.04, 17.6, 52
2008/03/26, 00:41:21, 3082.00, 0.00, 10.41, 10.80, 999.0, 45.4361320, -46.6480150, , 57.80, 13.50, 54.80, 999.72, 0.80, 1.5, 68.51, 93.61, 95.5, 144, 13.8, 38.48490, 34.78410, 10.6418, 34.7841, 38.4849, 132.50, 9.0632, 1486.15, 210.60, 209.7, 15.33, 20.3, 52
2008/03/26, 00:42:22, 3081.00, 0.00, 10.64, 10.90, 999.5, 45.4382030, -46.6436850, , 52.40, 13.83, 56.10, 999.87, 0.70, 2.2, 68.55, 93.72, 95.5, 143, 14.2, 38.50570, 34.77970, 10.6684, 34.7797, 38.5057, 129.80, 9.0790, 1486.21, 207.10, 207.1, 16.11, 19.6, 52
2008/03/26, 00:43:22, 3074.00, 0.00, 10.64, 11.00, 999.6, 45.4403300, -46.6393000, , 70.80, 12.93, 52.00, 1000.01, 0.70, 3.0, 68.59, 93.72, 95.5, 138, 14.2, 38.51090, 34.77720, 10.6765, 34.7772, 38.5109, 130.80, 9.0783, 1486.20, 207.80, 200.4, 14.38, 21.1, 52
2008/03/26, 00:44:22, 3070.00, 0.00, 10.69, 11.00, 999.5, 45.4424620, -46.6349900, , 51.50, 13.01, 56.20, 999.85, 0.80, 2.7, 68.64, 93.70, 95.4, 142, 14.5, 38.49530, 34.76880, 10.6689, 34.7688, 38.4953, 126.80, 9.0670, 1486.15, 205.90, 207.0, 15.47, 20.3, 52
2008/03/26, 00:45:22, 3068.00, 0.00, 10.69, 11.10, 999.5, 45.4444670, -46.6307580, , 62.50, 14.04, 56.90, 1000.41, 0.90, 3.4, 68.70, 93.70, 95.4, 140, 14.4, 38.49930, 34.77260, 10.6691, 34.7726, 38.4993, 128.30, 9.0497, 1486.09, 214.00, 203.4, 14.70, 20.2, 52
2008/03/26, 00:46:22, 3083.00, 0.00, 10.75, 11.20, 999.2, 45.4465650, -46.6264250, , 53.30, 13.57, 55.50, 999.95, 0.70, 3.2, 68.75, 93.65, 95.4, 137, 11.7, 38.49650, 34.75580, 10.6838, 34.7558, 38.4965, 128.30, 9.0384, 1486.04, 207.40, 207.3, 16.87, 16.9, 52
2008/03/26, 00:47:22, 3094.00, 0.00, 10.75, 11.20, 999.2, 45.4486320, -46.6218980, , 54.40, 12.92, 57.60, 1000.34, 0.60, 2.0, 68.79, 93.61, 95.4, 140, 15.3, 38.46690, 34.75860, 10.6495, 34.7586, 38.4669, 130.40, 9.0296, 1486.00, 207.30, 206.5, 15.25, 20.3, 52
2008/03/26, 00:48:22, 3092.00, 0.00, 10.86, 11.20, 998.5, 45.4508000, -46.6174880, , 65.60, 13.53, 56.10, 999.65, 0.80, 2.4, 68.83, 93.70, 95.3, 142, 13.3, 38.46070, 34.75820, 10.6433, 34.7582, 38.4607, 129.80, 9.0139, 1485.95, 212.30, 207.9, 15.44, 19.8, 52
2008/03/26, 00:49:22, 3101.00, 0.00, 10.86, 11.30, 999.0, 45.4529070, -46.6131450, , 64.60, 12.13, 49.40, 1000.14, 0.60, 3.4, 68.89, 93.63, 95.4, 136, 11.1, 38.44630, 34.74970, 10.6370, 34.7497, 38.4463, 130.80, 8.9736, 1485.79, 204.40, 204.3, 14.39, 17.0, 52
2008/03/26, 00:50:22, 3104.00, 0.00, 10.89, 11.30, 999.1, 45.4548920, -46.6088100, , 60.70, 13.13, 53.90, 1000.11, 0.60, 2.9, 68.94, 93.58, 95.3, 131, 13.0, 38.40670, 34.73790, 10.6075, 34.7379, 38.4067, 128.60, 8.9123, 1485.55, 207.10, 200.4, 14.49, 18.0, 52
2008/03/26, 00:51:22, 3086.00, 0.00, 10.89, 11.30, 998.9, 45.4569320, -46.6045250, , 52.20, 13.84, 54.60, 999.71, 0.60, 3.2, 68.99, 93.63, 95.3, 135, 15.6, 38.35680, 34.72500, 10.5683, 34.7250, 38.3568, 126.40, 8.8648, 1485.36, 203.20, 200.6, 15.21, 20.7, 52
2008/03/26, 00:52:21, 3076.00, 0.00, 11.03, 11.40, 999.4, 45.4589950, -46.6000980, , 58.30, 13.49, 57.40, 999.54, 0.50, 1.9, 69.02, 93.56, 95.3, 140, 14.2, 38.30470, 34.71320, 10.5255, 34.7132, 38.3047, 125.90, 8.7848, 1485.05, 208.00, 206.5, 16.45, 19.9, 52
2008/03/26, 00:53:21, 3076.00, 0.00, 10.94, 11.40, 999.0, 45.4610500, -46.5955700, , 54.90, 13.76, 58.00, 999.49, 0.60, 1.9, 69.06, 93.53, 95.2, 136, 15.2, 38.27400, 34.71350, 10.4927, 34.7135, 38.2740, 124.30, 8.7126, 1484.78, 207.60, 203.0, 15.96, 20.4, 52
2008/03/26, 00:54:22, 3080.00, 0.00, 11.08, 11.40, 998.9, 45.4630580, -46.5908980, , 67.10, 16.14, 54.80, 999.90, 0.60, 2.4, 69.10, 93.39, 95.2, 135, 13.4, 38.25640, 34.71170, 10.4759, 34.7117, 38.2564, 122.80, 8.6248, 1484.45, 210.70, 205.5, 16.11, 19.9, 52
2008/03/26, 00:55:22, 3100.00, 0.00, 10.91, 11.40, 999.3, 45.4651470, -46.5864380, , 53.90, 14.40, 55.20, 999.76, 0.60, 3.4, 69.16, 93.37, 95.2, 139, 13.0, 38.22420, 34.70010, 10.4539, 34.7001, 38.2242, 123.70, 8.5694, 1484.23, 203.10, 206.2, 16.42, 18.7, 52
2008/03/26, 00:56:22, 3100.00, 0.00, 10.91, 11.40, 998.7, 45.4670780, -46.5818920, , 63.50, 14.68, 53.00, 999.61, 0.40, 2.8, 69.20, 93.39, 95.2, 139, 12.8, 38.13250, 34.66540, 10.3929, 34.6654, 38.1325, 121.60, 8.5196, 1484.01, 207.60, 211.4, 15.78, 19.4, 52
2008/03/26, 00:57:22, 3114.00, 0.00, 11.03, 11.40, 999.3, 45.4690830, -46.5775450, , 52.90, 14.46, 54.70, 999.55, 0.40, 5.1, 69.29, 93.30, 95.2, 137, 14.9, 37.98240, 34.63740, 10.2628, 34.6374, 37.9824, 120.70, 8.4776, 1483.82, 204.10, 204.3, 16.85, 20.0, 52
2008/03/26, 00:58:22, 3102.00, 0.00, 10.89, 11.40, 998.9, 45.4711400, -46.5731620, , 51.00, 13.49, 54.30, 999.15, 0.40, 3.6, 69.35, 93.23, 95.1, 137, 13.2, 37.85620, 34.61280, 10.1543, 34.6128, 37.8562, 124.30, 8.4396, 1483.64, 200.90, 200.2, 16.09, 18.0, 52
2008/03/26, 00:59:22, 3089.00, 0.00, 10.91, 11.40, 998.7, 45.4731330, -46.5687670, , 46.80, 14.46, 55.40, 999.41, 0.30, 3.6, 69.41, 93.13, 95.1, 135, 11.9, 37.73850, 34.58940, 10.0533, 34.5894, 37.7385, 125.90, 8.4179, 1483.54, 204.00, 205.6, 16.20, 17.2, 52
2008/03/26, 01:00:22, 3064.00, 0.00, 10.94, 11.40, 998.9, 45.4751630, -46.5644580, , 48.20, 13.74, 56.70, 999.57, 0.20, 1.8, 69.44, 92.97, 95.1, 138, 12.7, 37.65700, 34.58190, 9.9742, 34.5819, 37.6570, 129.80, 8.3963, 1483.44, 203.80, 203.9, 16.56, 18.1, 52
2008/03/26, 01:01:22, 3056.00, 0.00, 10.97, 11.30, 998.4, 45.4770880, -46.5602220, , 49.90, 12.49, 53.80, 999.72, 0.50, 2.1, 69.47, 93.08, 95.1, 138, 15.0, 37.56760, 34.56500, 9.8964, 34.5650, 37.5676, 127.60, 8.3866, 1483.38, 203.70, 203.4, 15.47, 20.3, 52
2008/03/26, 01:02:22, 3064.00, 0.00, 11.03, 11.40, 999.2, 45.4789780, -46.5557620, , 61.40, 11.95, 54.60, 999.49, 0.30, 1.9, 69.51, 92.94, 95.1, 139, 13.3, 37.52490, 34.55840, 9.8575, 34.5584, 37.5249, 127.10, 8.3885, 1483.39, 207.60, 207.1, 15.41, 18.6, 52
2008/03/26, 01:03:22, 3066.00, 0.00, 11.08, 11.40, 998.8, 45.4809650, -46.5512180, , 57.40, 13.50, 53.80, 999.29, 0.40, 1.9, 69.54, 92.89, 95.0, 138, 13.1, 37.46410, 34.55160, 9.7996, 34.5516, 37.4641, 126.40, 8.3911, 1483.38, 205.30, 208.6, 16.71, 19.0, 52
2008/03/26, 01:04:22, 3061.00, 0.00, 11.05, 11.40, 998.8, 45.4829400, -46.5467050, , 58.40, 12.19, 55.70, 999.40, 0.50, 2.7, 69.58, 92.87, 95.0, 134, 12.5, 37.43150, 34.54780, 9.7686, 34.5478, 37.4315, 127.10, 8.4027, 1483.42, 204.80, 202.2, 14.68, 16.9, 52
2008/03/26, 01:05:21, 3057.00, 0.00, 11.14, 11.40, 998.9, 45.4849630, -46.5424370, , 49.10, 13.56, 57.50, 999.75, 0.40, 0.7, 69.59, 92.77, 94.9, 150, 11.9, 37.39400, 34.54050, 9.7361, 34.5405, 37.3940, 125.90, 8.4171, 1483.47, 205.10, 215.3, 16.61, 17.9, 52
2008/03/26, 01:06:22, 3068.00, 0.00, 11.08, 11.40, 998.7, 45.4868580, -46.5380180, , 64.90, 12.24, 57.50, 999.53, 0.10, 1.3, 69.62, 92.82, 94.9, 153, 12.2, 37.36630, 34.53100, 9.7163, 34.5310, 37.3663, 124.90, 8.4347, 1483.52, 212.30, 216.8, 14.09, 18.2, 52
2008/03/26, 01:07:22, 3088.00, 0.00, 11.03, 11.40, 998.2, 45.4887600, -46.5336080, , 52.80, 12.66, 56.90, 999.24, 0.50, 3.1, 69.67, 92.61, 94.9, 138, 14.1, 37.36240, 34.54330, 9.6994, 34.5433, 37.3624, 126.80, 8.4301, 1483.51, 207.30, 208.5, 16.05, 18.4, 52
2008/03/26, 01:08:22, 3069.00, 0.00, 11.08, 11.50, 998.3, 45.4906120, -46.5290530, , 54.70, 14.68, 59.70, 999.59, 0.40, 4.7, 69.75, 92.68, 94.9, 140, 12.9, 37.39770, 34.54700, 9.7334, 34.5470, 37.3977, 128.30, 8.4142, 1483.46, 208.90, 209.8, 17.37, 18.3, 52
2008/03/26, 01:09:22, 3069.00, 0.00, 11.05, 11.50, 998.3, 45.4925100, -46.5244770, , 71.80, 13.86, 52.60, 999.56, 0.40, 5.0, 69.83, 92.61, 94.8, 135, 12.2, 37.39880, 34.54930, 9.7321, 34.5493, 37.3988, 129.20, 8.3662, 1483.29, 209.40, 206.9, 14.08, 19.2, 52
2008/03/26, 01:10:22, 3074.00, 0.00, 11.05, 11.50, 999.0, 45.4944030, -46.5201000, , 52.90, 13.38, 54.40, 999.28, 0.50, 7.8, 69.96, 92.56, 94.8, 142, 16.9, 37.40980, 34.55220, 9.7408, 34.5522, 37.4098, 128.60, 8.3171, 1483.10, 203.70, 206.9, 15.27, 22.2, 52
2008/03/26, 01:11:22, 3078.00, 0.00, 11.30, 11.50, 998.4, 45.4963070, -46.5155700, , 53.10, 13.77, 55.20, 999.31, 0.60, 6.7, 70.09, 92.42, 94.8, 142, 15.4, 37.44440, 34.55810, 9.7717, 34.5581, 37.4444, 131.60, 8.2589, 1482.88, 204.00, 206.7, 16.88, 20.6, 52
2008/03/26, 01:12:21, 3086.00, 0.00, 11.39, 11.60, 999.0, 45.4981730, -46.5110950, , 51.90, 13.74, 52.40, 999.30, 0.40, 4.2, 70.15, 92.37, 94.8, 142, 14.8, 37.47720, 34.56700, 9.7976, 34.5670, 37.4772, 134.40, 8.1668, 1482.55, 201.30, 205.1, 17.21, 20.5, 52
2008/03/26, 01:13:22, 3088.00, 0.00, 11.28, 11.60, 999.0, 45.5000750, -46.5065820, , 64.40, 12.74, 55.90, 999.03, 0.30, 2.8, 70.21, 92.39, 94.7, 133, 13.6, 37.49170, 34.55550, 9.8251, 34.5555, 37.4917, 136.20, 7.9773, 1481.84, 207.50, 208.6, 15.56, 18.9, 52
2008/03/26, 01:14:22, 3091.00, 0.00, 11.19, 11.50, 998.8, 45.5019300, -46.5021330, , 50.40, 13.90, 54.10, 999.62, 0.50, 2.7, 70.24, 92.30, 94.7, 137, 12.7, 37.44220, 34.54370, 9.7844, 34.5437, 37.4422, 139.00, 7.7825, 1481.08, 204.80, 205.8, 15.88, 17.7, 52
2008/03/26, 01:15:22, 3097.00, 0.00, 11.05, 11.50, 998.7, 45.5037220, -46.4977180, , 62.60, 13.40, 52.10, 999.48, 0.20, 3.5, 70.31, 92.20, 94.6, 139, 14.7, 37.36570, 34.51750, 9.7298, 34.5175, 37.3657, 138.00, 7.5546, 1480.19, 206.50, 208.7, 16.23, 20.8, 52
2008/03/26, 01:16:22, 3098.00, 0.00, 11.22, 11.50, 999.0, 45.5056130, -46.4932680, , 57.10, 11.74, 52.50, 999.45, 0.20, 3.9, 70.37, 92.18, 94.6, 142, 13.8, 37.30000, 34.50790, 9.6694, 34.5079, 37.3000, 139.00, 7.3555, 1479.41, 205.70, 207.9, 15.04, 19.0, 52
2008/03/26, 01:17:21, 0.00, 0.00, 11.05, 11.50, 998.8, 45.5074720, -46.4888350, , 66.40, 10.99, 54.80, 999.32, 0.30, 2.2, 70.41, 92.08, 94.5, 138, 13.8, 37.19380, 34.47130, 9.5934, 34.4713, 37.1938, 140.20, 6.8921, 1477.60, 207.50, 208.2, 13.67, 19.0, 52
2008/03/26, 01:18:22, 3116.00, 0.00, 11.00, 11.50, 998.8, 45.5092250, -46.4844120, , 65.50, 13.13, 58.80, 998.90, 0.20, 2.3, 70.45, 92.08, 94.4, 135, 13.0, 37.03700, 34.44270, 9.4547, 34.4427, 37.0370, 141.10, 6.1509, 1474.64, 211.50, 206.0, 15.65, 18.3, 52
2008/03/26, 01:19:22, 3123.00, 0.00, 10.91, 11.30, 998.4, 45.5110650, -46.4798820, , 60.00, 13.30, 55.70, 999.32, 0.20, 2.4, 70.49, 91.92, 94.4, 136, 14.2, 36.86130, 34.39490, 9.3151, 34.3949, 36.8613, 144.40, 5.6726, 1472.68, 208.30, 210.8, 15.32, 18.6, 52
2008/03/26, 01:20:22, 3176.00, 0.00, 10.97, 11.40, 998.4, 45.5130080, -46.4754150, , 57.90, 13.05, 56.70, 999.10, 0.30, 1.3, 70.51, 91.94, 94.5, 133, 15.4, 36.58400, 34.32920, 9.0836, 34.3292, 36.5840, 146.60, 5.3408, 1471.27, 205.60, 205.6, 16.11, 19.8, 52
2008/03/26, 01:21:22, 3137.00, 0.00, 11.00, 11.40, 998.7, 45.5149580, -46.4708950, , 59.80, 12.23, 55.10, 999.34, 0.10, 1.2, 70.53, 91.99, 94.3, 139, 14.0, 36.25870, 34.25780, 8.8049, 34.2578, 36.2587, 142.40, 5.1533, 1470.42, 204.60, 207.0, 16.40, 19.6, 52
2008/03/26, 01:22:22, 3161.00, 0.00, 10.97, 11.30, 998.2, 45.5169250, -46.4663880, , 52.70, 14.01, 55.50, 999.53, 0.30, 0.6, 70.54, 91.84, 94.3, 142, 13.1, 35.92330, 34.19220, 8.5073, 34.1922, 35.9233, 144.80, 5.0596, 1469.96, 206.90, 205.5, 16.47, 18.2, 52
2008/03/26, 01:23:22, 3166.00, 0.00, 11.00, 11.30, 997.9, 45.5188320, -46.4620470, , 63.00, 13.67, 55.80, 999.04, 0.40, 0.3, 70.54, 91.84, 94.3, 138, 13.6, 35.43300, 34.05870, 8.1079, 34.0587, 35.4330, 140.50, 4.9990, 1469.56, 209.40, 202.6, 15.69, 19.1, 52
2008/03/26, 01:24:22, 0.00, 0.00, 10.94, 11.30, 998.0, 45.5206620, -46.4578670, , 53.60, 11.70, 55.60, 999.18, 0.30, 0.1, 70.54, 91.75, 94.1, 140, 12.0, 34.52160, 33.83250, 7.3321, 33.8325, 34.5216, 137.20, 4.9518, 1469.07, 206.20, 205.5, 15.38, 16.0, 52
2008/03/26, 01:25:22, 3210.00, 0.00, 10.66, 11.20, 997.9, 45.5225570, -46.4534870, , 62.40, 15.78, 56.70, 999.20, 0.20, 0.1, 70.55, 91.68, 94.0, 136, 11.7, 33.68350, 33.67900, 6.5506, 33.6790, 33.6835, 132.50, 4.9034, 1468.70, 213.30, 207.4, 16.43, 17.9, 52
2008/03/26, 01:26:22, 3254.00, 0.00, 10.75, 11.20, 998.3, 45.5244050, -46.4491080, , 66.40, 13.67, 53.20, 999.05, 0.30, 0.7, 70.56, 91.65, 94.0, 138, 14.6, 33.14230, 33.63410, 5.9853, 33.6341, 33.1423, 134.70, 4.8625, 1468.43, 209.10, 204.8, 14.71, 20.6, 52
2008/03/26, 01:27:22, 3239.00, 0.00, 10.97, 11.30, 998.5, 45.5263020, -46.4447630, , 61.30, 12.88, 55.20, 999.03, 0.30, 0.0, 70.56, 91.82, 94.1, 141, 14.1, 33.00690, 33.63810, 5.8279, 33.6381, 33.0069, 139.00, 4.8429, 1468.36, 208.20, 209.0, 15.66, 19.2, 52
2008/03/26, 01:28:22, 3272.00, 0.00, 10.72, 11.20, 998.8, 45.5281470, -46.4402700, , 43.20, 14.14, 57.00, 999.26, 0.30, 0.1, 70.56, 91.65, 93.9, 136, 13.5, 33.02850, 33.68230, 5.8080, 33.6823, 33.0285, 153.60, 4.8143, 1468.29, 202.80, 204.8, 17.44, 18.5, 52
2008/03/26, 01:29:22, 3274.00, 0.00, 10.86, 11.20, 998.3, 45.5299900, -46.4358320, , 54.70, 13.94, 59.00, 998.86, 0.40, 2.6, 70.61, 91.58, 94.0, 136, 12.3, 33.14750, 33.70260, 5.9223, 33.7026, 33.1475, 160.00, 4.7803, 1468.17, 205.70, 209.5, 15.94, 16.5, 52
2008/03/26, 01:30:21, 3306.00, 0.00, 10.80, 11.20, 998.5, 45.5317950, -46.4313180, , 61.10, 13.93, 57.30, 999.55, 0.30, 3.1, 70.66, 91.61, 93.9, 143, 13.2, 33.22410, 33.69530, 6.0162, 33.6953, 33.2241, 167.10, 4.7337, 1467.99, 210.20, 206.1, 16.90, 18.2, 52